Temperature
18 17 17 17 17 17 17 17 17 17 17 17 17 16 16 16 16 16 16 16 16 16 16 16 16 16 16 16 16 16 16 16 16 15 15 15 14 14 14 14 14 13 13
18 18 17 17 17 17 17 17 17 17 17 17 16 16 16 16 16 16 16 16 16 16 16 15 15 15 15 15 15 15 15 15 15 15 14 14 14 13 13 13 13 12 12
18 18 17 17 17 17 17 17 16 16 16 16 16 16 16 16 16 16 16 16 16 16 15 15 15 15 15 15 15 15 15 15 15 15 14 13 13 13 12 12 12 11 11
18 17 17 17 17 17 16 16 16 16 16 16 16 16 16 16 15 15 15 15 15 15 15 15 15 14 14 14 14 14 14 14 14 14 13 13 12 12 11 11 11 10 10
17 17 17 17 16 16 16 16 16 16 16 16 15 15 15 15 15 15 15 15 15 15 14 14 14 14 14 14 14 14 14 14 13 13 12 12 11 11 11 10 10 10 9
17 17 16 16 16 16 16 16 15 15 15 15 15 15 15 15 15 14 14 14 14 14 14 14 14 13 13 13 13 13 13 13 13 12 12 11 11 10 10 10 9 9 8
17 17 16 16 16 16 15 15 15 15 15 15 15 15 15 14 14 14 14 14 14 13 13 13 13 13 13 13 12 12 12 12 12 11 11 11 10 10 10 9 9 9 8
17 16 16 16 16 15 15 15 15 15 15 14 14 14 14 14 14 14 13 13 13 13 13 12 12 12 12 12 12 12 11 11 10 10 10 10 9 9 9 9 8 8 7
16 16 16 16 15 15 15 15 15 14 14 14 14 14 14 13 13 13 13 13 13 13 12 12 11 11 11 11 11 11 11 10 9 9 9 9 8 8 8 8 7 7 7
16 16 16 15 15 15 15 15 14 14 14 14 13 13 13 13 13 12 12 13 12 12 11 11 11 11 10 10 10 10 10 9 9 8 8 8 7 7 7 7 7 6 6
16 15 15 15 15 15 14 14 14 14 13 13 13 13 12 12 12 12 12 12 12 11 11 10 10 10 10 9 9 9 9 8 8 8 7 7 7 6 6 6 6 6 5
15 15 15 14 14 14 14 14 14 13 13 13 12 12 12 11 11 11 11 11 11 11 10 10 9 9 9 9 8 8 8 8 7 7 7 6 6 6 6 5 5 5 5
15 14 14 14 14 13 13 13 13 13 13 12 12 12 11 11 10 10 10 10 10 10 9 9 8 8 8 7 7 7 7 7 7 6 6 5 5 5 5 5 4 4 4
14 14 14 14 13 13 13 13 12 12 12 12 12 11 11 10 10 10 9 9 9 9 8 8 8 7 7 7 7 6 6 6 6 6 5 5 5 4 4 4 4 4 4
14 13 13 13 13 12 12 12 11 11 11 11 11 11 11 10 9 9 9 9 9 8 8 7 7 7 6 6 6 6 5 5 5 5 5 4 4 4 4 4 4 3 3
13 13 13 12 12 12 11 11 11 11 10 10 10 10 10 9 9 8 8 8 8 7 7 7 6 6 6 6 5 5 5 5 4 4 4 4 4 4 3 3 3 3 3
13 12 12 12 12 11 11 11 10 10 9 9 9 9 9 8 8 8 7 7 7 7 7 6 6 6 5 5 5 5 4 4 4 4 4 4 3 3 3 3 3 3 3
12 12 12 11 11 11 10 10 10 10 9 9 8 8 8 8 7 7 7 7 6 6 6 6 6 5 5 5 5 4 4 4 4 4 4 4 3 3 3 3 3 3 3
11 11 11 11 10 10 10 10 9 9 9 8 8 7 7 7 6 6 6 6 6 6 6 5 5 5 5 5 4 4 4 4 4 4 4 3 3 3 3 3 3 2 2
11 11 10 10 10 10 9 9 9 8 8 8 7 7 7 6 6 6 6 6 6 6 5 5 5 5 5 5 4 4 4 4 4 4 3 3 3 3 3 3 2 2 2
10 10 10 10 9 9 9 9 8 8 8 7 7 7 7 6 6 6 6 6 5 5 5 5 5 5 5 5 4 4 4 4 4 4 3 3 3 3 3 3 2 2 2
10 9 9 9 9 9 8 8 8 8 7 7 7 6 6 6 6 6 6 6 5 5 5 5 5 5 5 5 4 4 4 4 4 4 3 3 3 3 3 3 3 2 2
9 9 9 9 8 8 8 8 7 7 7 7 7 6 6 6 6 6 6 5 5 5 5 5 5 5 5 5 4 4 4 4 4 4 3 3 3 3 3 3 3 2 2
9 9 9 8 8 8 8 7 7 7 7 7 7 6 6 6 6 6 6 6 6 5 5 5 5 5 5 5 4 4 4 4 4 4 4 3 3 3 3 3 3 3 3
9 8 8 8 8 8 8 7 7 7 7 7 7 6 6 6 6 6 6 6 6 6 5 5 5 5 5 5 4 4 4 4 4 4 4 3 3 3 3 3 3 3 3
8 8 8 8 8 8 8 7 7 7 7 7 7 6 6 6 6 6 6 6 6 6 5 5 5 5 5 5 4 4 4 4 4 4 4 4 4 3 3 3 3 3 3
Wind_Speed
4 4 4 3 3 3 4 4 3 3 4 4 4 4 4 4 4 4 4 4 5 4 3 4 4 3 3 2 3 3 3 3 4 2 2 4 5 7 9 12 13 14 15
5 4 4 3 3 3 3 2 3 3 3 4 4 4 4 4 4 4 4 4 4 4 4 4 3 3 3 3 3 3 3 3 5 5 3 3 5 6 7 9 11 13 14
5 5 4 3 3 3 2 2 3 3 3 3 3 4 4 4 4 4 4 4 3 3 3 4 4 4 3 3 4 4 4 5 5 7 5 3 4 4 6 8 10 10 12
5 5 4 3 3 3 3 2 2 3 3 3 3 3 3 4 4 4 5 5 4 4 3 3 3 4 4 4 4 5 6 7 7 8 6 4 4 3 5 6 6 6 7
6 5 4 3 3 3 3 3 3 3 3 3 3 3 3 3 4 5 6 6 5 5 5 4 5 6 7 6 5 6 7 7 8 8 7 5 4 4 4 3 6 6 6
5 5 4 4 4 4 4 4 4 4 4 4 4 4 4 3 6 8 7 6 6 6 6 6 7 8 10 12 12 11 10 9 9 7 6 6 5 3 3 5 4 4 3
6 5 5 5 5 5 5 5 5 4 5 5 5 5 5 6 9 10 11 7 7 6 6 6 6 8 10 11 14 16 15 14 11 8 9 6 5 4 5 6 5 5 3
6 5 5 5 5 5 5 5 5 5 5 5 5 6 7 7 10 11 12 9 8 7 6 7 8 7 8 11 12 12 11 10 10 9 8 7 6 5 5 6 6 6 5
5 5 5 5 6 6 6 6 5 6 6 5 5 6 7 7 9 11 11 8 8 8 7 8 9 9 12 14 13 13 12 10 16 18 17 15 14 13 11 7 6 6 4
5 5 5 5 6 6 6 6 6 6 7 7 7 6 7 6 8 9 10 8 9 8 7 8 10 10 11 12 11 12 12 9 9 11 12 13 13 12 11 7 5 5 3
5 6 5 5 5 6 6 6 7 7 8 7 8 7 7 7 8 9 9 7 8 8 7 6 6 12 13 12 11 10 12 10 10 10 9 8 9 8 9 8 6 4 4
6 6 6 5 5 6 7 7 7 8 8 8 7 7 6 6 7 9 10 10 10 10 8 7 9 14 15 13 11 13 14 12 9 9 8 7 6 6 6 8 9 9 7
6 6 5 5 5 6 7 7 7 6 7 6 6 6 5 5 7 11 12 13 13 10 9 13 14 16 15 12 14 14 11 8 8 8 7 5 4 4 5 6 8 10 10
6 5 6 6 6 6 5 5 5 6 6 6 6 6 6 5 5 6 7 9 12 12 11 13 15 15 12 11 10 8 7 6 7 7 6 4 4 4 5 4 4 4 4
6 6 6 6 7 6 6 5 4 3 3 6 6 7 7 6 5 8 8 7 8 9 9 8 7 7 7 7 6 6 6 5 6 5 5 5 5 5 4 3 3 3 3
7 6 5 5 6 6 7 7 12 9 11 10 9 8 6 9 12 12 12 13 13 12 10 8 7 6 6 6 6 5 5 5 5 5 5 4 4 4 4 3 3 3 3
7 7 6 6 6 6 6 7 7 9 12 12 11 11 12 13 14 14 14 14 12 11 8 7 6 6 6 5 5 5 4 4 4 4 4 4 3 3 3 3 2 2 2
7 7 7 6 6 6 6 6 6 7 7 6 7 10 13 13 13 14 14 12 8 6 5 6 6 5 5 5 5 4 4 4 4 4 4 3 3 3 2 2 2 1 1
7 6 6 6 6 6 6 6 6 7 7 6 6 6 9 11 11 11 9 6 6 5 5 5 5 5 4 4 4 4 4 4 4 3 3 3 3 2 2 1 1 1 1
6 9 8 7 7 6 6 6 6 7 7 6 6 6 5 6 6 5 4 4 5 5 5 5 4 4 4 4 4 4 4 3 3 3 3 3 2 2 2 1 1 1 1
6 7 10 8 6 6 6 6 6 6 6 6 5 5 7 6 6 6 4 4 4 4 5 5 4 4 4 4 4 5 5 4 4 3 3 3 3 2 2 2 2 2 2
6 6 6 6 6 5 6 6 6 6 6 6 5 5 7 5 5 5 4 4 4 4 5 5 5 5 6 6 6 5 5 5 4 4 3 3 3 3 2 2 2 2 2
7 7 6 6 6 7 6 5 5 5 6 6 6 5 5 5 5 4 4 4 4 4 6 6 6 6 6 7 8 8 6 6 6 6 5 4 3 3 3 3 3 3 3
6 7 6 6 6 5 5 5 5 5 5 5 5 5 5 5 5 5 4 4 5 5 6 7 7 8 9 8 9 9 10 9 9 8 8 6 4 3 3 3 4 4 5
6 6 6 5 5 5 5 5 5 5 5 5 5 5 5 5 5 5 5 5 6 6 7 8 8 9 10 11 10 11 12 12 11 9 8 7 6 5 4 5 4 5 5
5 5 5 5 5 5 5 5 5 5 5 5 5 5 5 5 5 5 5 5 6 6 7 8 10 11 11 11 12 13 13 13 13 12 10 7 6 6 5 5 6 6 6
Wind_Direction
152 157 157 160 167 172 181 194 195 190 183 183 186 184 186 193 190 188 195 186 187 194 195 194 210 199 188 192 181 165 158 145 148 118 68 57 63 75 76 82 85 84 83
144 137 136 137 141 148 158 170 164 167 174 178 176 173 180 180 179 180 187 180 175 183 189 181 198 190 176 170 159 155 151 144 143 137 111 75 69 80 83 82 82 84 85
134 131 129 131 132 133 138 144 144 151 156 159 161 171 176 171 164 163 157 151 152 161 167 171 179 165 164 151 145 142 133 128 124 130 123 89 77 81 85 80 76 77 83
133 130 134 136 134 133 133 136 145 147 143 149 160 166 165 155 149 144 134 129 124 117 115 123 138 156 158 144 135 128 124 118 115 117 114 101 88 78 89 92 83 70 71
135 135 136 131 128 127 122 113 111 116 121 129 131 124 123 130 137 136 132 128 122 110 96 91 95 107 117 123 126 126 127 122 118 116 112 105 100 100 105 103 104 93 66
137 134 125 119 117 114 110 105 98 92 90 95 105 111 108 114 124 126 127 121 116 113 107 92 85 85 92 95 101 106 116 125 129 123 117 118 120 114 111 117 120 110 82
133 128 125 121 115 113 113 106 100 92 88 85 87 95 96 101 112 115 114 113 111 111 111 106 100 93 93 95 89 85 85 92 108 122 121 123 128 138 128 116 105 93 92
132 129 127 127 123 118 115 111 105 98 95 93 89 93 93 91 102 105 103 99 98 94 96 104 107 102 105 108 100 89 81 77 89 96 108 109 111 114 116 120 116 100 79
131 131 133 137 136 129 124 120 114 109 101 96 95 97 97 92 95 101 102 100 96 89 90 97 107 108 112 111 108 103 95 86 86 91 92 92 93 99 109 110 107 104 82
142 134 128 133 136 134 129 122 112 109 105 100 90 87 93 94 92 99 105 107 104 99 91 92 102 110 112 114 115 115 110 104 100 91 84 80 81 82 87 99 118 114 100
129 123 118 118 126 127 120 116 115 113 106 99 92 82 82 87 89 93 101 110 116 111 104 99 99 105 105 105 108 112 118 115 104 98 92 84 77 71 66 71 82 101 101
124 123 121 122 129 129 123 119 118 118 113 109 104 93 80 80 88 95 96 99 109 112 111 107 103 99 97 97 102 108 109 106 104 101 95 87 81 73 66 69 75 77 80
125 125 123 119 114 122 128 129 125 125 125 125 121 114 103 92 89 92 95 97 99 101 106 108 105 100 95 94 98 101 103 105 107 104 100 90 77 75 80 78 71 71 68
129 126 123 120 114 108 110 121 132 138 138 137 135 130 121 110 106 105 103 102 100 102 105 103 97 92 91 92 90 87 88 99 108 108 105 93 84 82 78 75 79 71 65
131 129 125 122 120 111 96 81 101 93 134 147 147 143 142 137 131 126 126 120 120 120 117 107 103 104 101 96 91 87 90 95 96 99 105 101 94 87 72 62 69 67 63
135 133 130 127 123 120 114 89 63 75 84 90 101 115 107 117 122 118 115 114 116 121 115 117 118 119 121 120 117 107 99 101 105 111 111 110 108 101 88 73 72 72 59
136 135 131 129 129 128 127 123 110 78 74 81 95 107 116 122 121 118 115 111 112 116 114 123 127 128 128 126 124 120 116 115 117 121 120 120 118 109 100 88 80 69 46
125 130 132 131 131 132 130 127 127 127 115 88 81 102 116 120 120 120 118 111 104 102 120 131 135 137 136 137 136 131 129 130 131 132 132 131 131 127 116 103 86 63 30
128 131 127 124 123 123 123 122 122 123 122 117 109 98 106 111 109 112 116 119 133 133 131 134 140 145 146 147 148 146 147 149 149 148 150 152 152 144 137 129 109 59 5
120 128 126 124 122 122 124 126 128 129 129 131 132 132 132 124 125 126 122 128 137 144 147 152 156 158 158 158 158 157 157 160 163 166 170 170 169 171 176 185 203 256 302
122 128 126 121 125 130 133 135 137 139 141 142 142 145 147 144 148 152 155 156 159 163 166 168 171 173 173 170 169 171 174 179 185 187 188 189 188 195 205 213 229 251 283
123 125 126 127 128 130 131 134 137 141 148 148 143 141 144 144 156 164 174 181 182 185 186 183 186 190 190 187 182 181 185 191 196 197 199 201 203 208 213 225 242 262 280
126 127 123 122 124 126 128 134 141 148 152 155 155 156 162 168 173 181 190 196 196 195 197 195 195 199 199 197 194 192 195 201 203 199 197 202 206 212 219 232 246 265 278
127 127 128 129 131 137 141 144 149 155 158 160 164 169 177 184 188 195 201 203 202 205 206 203 204 206 204 202 203 206 210 212 206 203 203 204 210 218 224 234 247 260 271
127 129 133 139 145 149 151 156 162 166 167 171 176 181 185 189 198 205 208 209 206 209 211 210 210 211 212 211 212 215 219 219 218 213 207 209 217 222 229 241 252 262 269
137 138 141 147 153 160 165 169 174 176 179 183 185 188 190 195 204 211 210 209 210 213 216 216 217 217 218 220 223 223 224 225 226 224 216 215 221 230 234 245 256 260 269
Height
1520 1522 1523 1525 1527 1528 1530 1531 1533 1535 1536 1538 1539 1541 1543 1544 1546 1547 1549 1550 1552 1553 1554 1554 1555 1556 1557 1559 1560 1561 1562 1564 1564 1566 1567 1567 1568 1568 1569 1569 1570 1570 1570
1518 1520 1522 1523 1525 1526 1527 1529 1530 1532 1533 1535 1537 1538 1539 1541 1542 1544 1545 1547 1548 1549 1550 1551 1552 1553 1554 1555 1556 1557 1558 1560 1561 1562 1563 1564 1565 1566 1566 1567 1567 1568 1568
1517 1519 1520 1522 1523 1524 1525 1527 1528 1529 1531 1532 1534 1535 1536 1538 1539 1541 1542 1544 1545 1546 1547 1547 1548 1549 1551 1552 1553 1554 1555 1557 1558 1559 1560 1562 1563 1564 1564 1565 1566 1566 1567
1516 1518 1519 1520 1521 1522 1524 1525 1526 1527 1528 1530 1531 1532 1534 1535 1537 1538 1539 1541 1542 1543 1544 1545 1546 1547 1548 1549 1550 1551 1552 1554 1555 1556 1558 1559 1560 1562 1563 1563 1564 1565 1565
1516 1517 1518 1519 1520 1521 1522 1523 1524 1525 1527 1528 1529 1530 1531 1533 1534 1536 1537 1538 1539 1540 1541 1542 1543 1545 1546 1547 1548 1549 1550 1551 1553 1554 1555 1557 1558 1560 1561 1562 1563 1563 1564
1515 1517 1518 1519 1520 1521 1522 1522 1524 1525 1526 1526 1527 1528 1529 1531 1532 1533 1534 1535 1537 1538 1539 1541 1542 1543 1544 1545 1546 1547 1549 1550 1551 1552 1554 1555 1557 1558 1560 1561 1562 1562 1563
1515 1516 1517 1518 1519 1520 1521 1522 1523 1524 1525 1526 1526 1527 1528 1529 1530 1532 1533 1534 1535 1536 1538 1539 1540 1541 1543 1544 1545 1546 1547 1549 1551 1552 1553 1555 1556 1557 1558 1559 1560 1561 1562
1514 1515 1517 1518 1519 1520 1521 1522 1523 1524 1525 1526 1526 1527 1528 1529 1530 1531 1532 1532 1533 1534 1536 1538 1539 1541 1542 1543 1544 1545 1546 1548 1550 1551 1553 1554 1556 1557 1558 1559 1560 1561 1561
1513 1515 1516 1517 1519 1520 1521 1522 1523 1524 1525 1526 1526 1527 1528 1529 1530 1531 1531 1531 1532 1533 1535 1537 1538 1540 1541 1543 1544 1545 1546 1548 1550 1552 1553 1554 1556 1557 1558 1559 1560 1561 1561
1512 1514 1515 1517 1518 1519 1520 1521 1523 1524 1524 1525 1526 1527 1528 1529 1530 1530 1531 1531 1531 1532 1534 1536 1538 1539 1541 1543 1544 1545 1547 1549 1551 1552 1553 1555 1556 1557 1559 1560 1560 1561 1561
1511 1513 1515 1516 1517 1519 1520 1521 1522 1523 1524 1525 1526 1527 1528 1529 1530 1531 1531 1532 1532 1533 1534 1536 1538 1540 1541 1543 1545 1546 1548 1550 1551 1553 1554 1556 1557 1558 1559 1560 1560 1561 1561
1510 1512 1513 1515 1516 1517 1519 1520 1521 1522 1523 1524 1525 1526 1528 1529 1530 1531 1532 1533 1534 1534 1536 1537 1539 1541 1543 1544 1546 1548 1549 1551 1552 1554 1555 1556 1558 1559 1560 1560 1561 1561 1561
1509 1510 1512 1514 1515 1516 1518 1519 1520 1521 1523 1524 1525 1526 1528 1529 1530 1532 1533 1534 1535 1536 1537 1539 1541 1543 1544 1546 1548 1549 1551 1553 1554 1555 1556 1558 1559 1560 1561 1561 1562 1562 1562
1507 1509 1510 1512 1513 1515 1517 1518 1519 1521 1522 1523 1525 1526 1527 1529 1530 1532 1533 1534 1536 1537 1539 1541 1543 1545 1546 1548 1550 1551 1553 1554 1555 1556 1558 1559 1560 1561 1562 1562 1562 1562 1562
1506 1507 1508 1510 1512 1513 1515 1517 1518 1520 1522 1523 1524 1526 1527 1528 1530 1532 1534 1535 1537 1539 1541 1542 1544 1546 1548 1550 1552 1553 1555 1556 1557 1558 1559 1561 1562 1562 1563 1563 1563 1563 1563
1504 1505 1507 1509 1511 1512 1514 1515 1517 1520 1521 1523 1525 1526 1527 1530 1531 1533 1535 1537 1539 1541 1543 1544 1546 1548 1550 1551 1553 1555 1556 1558 1559 1560 1561 1562 1563 1563 1564 1564 1564 1564 1563
1503 1504 1506 1508 1509 1511 1513 1514 1516 1519 1521 1523 1525 1526 1528 1530 1532 1534 1536 1538 1540 1543 1544 1546 1548 1550 1552 1554 1555 1556 1558 1559 1560 1562 1563 1563 1564 1564 1564 1565 1565 1564 1564
1502 1504 1505 1507 1509 1511 1512 1514 1516 1518 1520 1522 1525 1527 1529 1531 1533 1535 1537 1540 1541 1544 1546 1548 1550 1552 1553 1555 1556 1558 1559 1560 1561 1562 1563 1564 1564 1565 1565 1565 1565 1564 1564
1501 1503 1505 1506 1509 1511 1512 1514 1516 1518 1520 1522 1525 1527 1530 1532 1534 1537 1539 1541 1542 1545 1547 1549 1551 1553 1555 1556 1558 1559 1560 1561 1562 1563 1564 1564 1565 1565 1565 1565 1565 1564 1563
1501 1503 1504 1506 1509 1511 1513 1515 1517 1519 1521 1523 1525 1528 1530 1533 1535 1537 1540 1542 1544 1546 1548 1550 1552 1554 1556 1557 1558 1559 1561 1562 1562 1563 1564 1564 1564 1565 1565 1564 1564 1564 1563
1500 1503 1505 1507 1509 1511 1514 1516 1518 1520 1522 1524 1526 1529 1532 1534 1536 1539 1541 1543 1545 1547 1549 1551 1553 1555 1556 1557 1558 1559 1560 1561 1562 1563 1563 1563 1564 1564 1564 1563 1563 1563 1562
1501 1503 1506 1508 1510 1512 1514 1517 1519 1521 1523 1525 1527 1530 1533 1535 1537 1540 1542 1544 1546 1548 1550 1552 1553 1554 1556 1557 1558 1558 1559 1560 1561 1562 1562 1562 1562 1562 1562 1562 1562 1561 1561
1503 1505 1507 1509 1511 1513 1516 1518 1520 1522 1524 1526 1528 1531 1533 1535 1538 1540 1542 1544 1546 1548 1549 1551 1553 1554 1555 1556 1557 1558 1558 1559 1560 1560 1561 1561 1561 1561 1561 1560 1560 1559 1559
1505 1507 1508 1510 1513 1515 1517 1519 1521 1523 1525 1527 1529 1531 1533 1535 1538 1540 1542 1544 1545 1547 1549 1550 1551 1553 1554 1555 1555 1556 1557 1558 1558 1559 1559 1559 1559 1559 1559 1558 1558 1557 1556
1506 1508 1510 1512 1514 1516 1517 1519 1521 1523 1525 1527 1529 1531 1533 1535 1537 1539 1541 1543 1544 1546 1547 1549 1550 1551 1552 1553 1554 1555 1555 1556 1556 1557 1557 1557 1557 1557 1557 1556 1555 1554 1553
1508 1510 1511 1513 1515 1516 1518 1520 1522 1523 1525 1527 1529 1530 1532 1534 1536 1538 1539 1541 1543 1544 1545 1546 1548 1549 1550 1551 1552 1553 1553 1554 1554 1554 1555 1554 1554 1554 1554 1553 1552 1551 1550